Location: Zapote
(9.9191°N, 84.0597°W)
Time: 06:17:42
(UTC-06:00)

Explorer 11/Cluster Stage 4 - All Passes

Search period start: 07 March 2021 00:00
Search period end: 17 March 2021 00:00
Orbit: 467 x 1257 km, 28.8° (Epoch: 06 March)

Date Brightness Start Highest point End Pass type
(mag) Time Alt. Az. Time Alt. Az. Time Alt. Az.
07 Mar - 00:47:44 10° WNW 00:51:09 21° NNW 00:55:07 10° NNE night (unlit)
07 Mar - 02:38:43 10° NNW 02:41:05 13° N 02:43:39 10° NNE visible
07 Mar - 04:27:36 10° NNW 04:31:32 16° NNE 04:35:53 10° NE visible
07 Mar - 06:15:15 10° NW 06:21:45 33° NNE 06:28:56 10° E daylight
07 Mar - 08:03:31 10° WNW 08:11:30 84° NNE 08:19:46 10° ESE daylight
07 Mar - 09:53:40 10° W 10:00:55 34° SSW 10:07:53 10° SSE daylight
07 Mar - 21:01:16 10° S 21:03:30 15° SSE 21:05:47 10° ESE night (unlit)
07 Mar - 22:47:47 10° WSW 22:51:29 64° NNW 22:55:47 10° NE night (unlit)
08 Mar - 00:37:30 10° NW 00:40:25 17° NNW 00:43:40 10° NNE night (unlit)
08 Mar - 02:28:45 10° NNW 02:30:21 11° N 02:32:02 10° NNE visible
08 Mar - 04:16:48 10° NNW 04:20:42 16° NNE 04:25:00 10° NE visible
08 Mar - 06:04:12 10° NW 06:10:42 36° NNE 06:18:01 10° E daylight
08 Mar - 07:52:28 10° WNW 08:00:18 86° SSW 08:08:37 10° ESE daylight
08 Mar - 09:42:52 10° W 09:49:44 29° SSW 09:56:28 10° SSE daylight
08 Mar - 20:49:54 10° SSW 20:52:38 20° SSE 20:55:25 10° E night (unlit)
08 Mar - 22:37:08 10° WSW 22:40:41 47° NNW 22:44:42 10° NE night (unlit)
09 Mar - 00:27:24 10° NW 00:29:40 14° NNW 00:32:08 10° NNE night (unlit)
09 Mar - 04:05:58 10° NNW 04:09:50 17° NNE 04:14:09 10° NE visible
09 Mar - 05:53:09 10° NW 05:59:37 40° NNE 06:07:02 10° E daylight
09 Mar - 07:41:28 10° WNW 07:49:07 76° SSW 07:57:24 10° SE daylight
09 Mar - 09:32:11 10° W 09:38:35 25° SSW 09:44:58 10° SSE daylight
09 Mar - 20:38:40 10° SSW 20:41:47 26° SSE 20:44:54 10° E night (unlit)
09 Mar - 22:26:32 10° W 22:29:54 35° NNW 22:33:35 10° NE night (unlit)
10 Mar - 00:17:37 10° NNW 00:18:57 11° N 00:20:21 10° N night (unlit)
10 Mar - 03:55:05 10° NNW 03:58:58 17° NNE 04:03:20 10° ENE visible
10 Mar - 05:42:09 10° NW 05:48:33 45° NNE 05:56:02 10° E daylight
10 Mar - 07:30:31 10° WNW 07:37:56 65° SSW 07:46:08 10° SE daylight
10 Mar - 09:21:38 10° WSW 09:27:27 22° SSW 09:33:21 10° SSE daylight
10 Mar - 20:27:30 10° SW 20:30:58 36° SSE 20:34:18 10° E night (unlit)
10 Mar - 22:15:59 10° W 22:19:07 27° NNW 22:22:28 10° NE night (unlit)
11 Mar - 03:44:10 10° NNW 03:48:05 18° NNE 03:52:31 10° ENE visible
11 Mar - 05:31:10 10° NW 05:37:28 51° NNE 05:44:59 10° ESE daylight
11 Mar - 07:19:38 10° WNW 07:26:46 56° SSW 07:34:47 10° SE daylight
11 Mar - 09:11:14 10° WSW 09:16:22 18° SSW 09:21:36 10° S daylight
11 Mar - 20:16:26 10° SW 20:20:08 49° SSE 20:23:38 10° ENE visible
11 Mar - 22:05:30 10° WNW 22:08:21 21° NNW 22:11:18 10° NNE night (unlit)
12 Mar - 03:33:15 10° NNW 03:37:11 19° NNE 03:41:42 10° ENE visible
12 Mar - 05:20:13 10° NW 05:26:23 58° NNE 05:33:53 10° ESE visible
12 Mar - 07:08:50 10° WNW 07:15:38 47° SSW 07:23:22 10° SE daylight
12 Mar - 09:01:05 10° WSW 09:05:18 15° SSW 09:09:38 10° S daylight
12 Mar - 18:19:49 10° SSE 18:20:54 11° SSE 18:21:57 10° SE visible
12 Mar - 20:05:24 10° SW 20:09:19 69° SSE 20:12:54 10° ENE visible
12 Mar - 21:55:06 10° WNW 21:57:35 17° NNW 22:00:06 10° NNE night (unlit)
13 Mar - 03:22:19 10° NNW 03:26:17 21° NNE 03:30:53 10° ENE visible
13 Mar - 05:09:17 10° NW 05:15:19 67° NNE 05:22:44 10° ESE visible
13 Mar - 06:58:06 10° W 07:04:31 40° SSW 07:11:53 10° SE daylight
13 Mar - 08:51:21 10° SW 08:54:17 12° SSW 08:57:18 10° S daylight
13 Mar - 18:07:27 10° S 18:10:05 15° SSE 18:12:30 10° ESE visible
13 Mar - 19:54:25 10° WSW 19:58:29 87° NNW 20:02:08 10° ENE visible
13 Mar - 21:44:48 10° NW 21:46:49 14° NNW 21:48:49 10° NNE night (unlit)
14 Mar - 03:11:24 10° NNW 03:15:23 22° NNE 03:20:04 10° ENE visible
14 Mar - 04:58:25 10° WNW 05:04:15 78° NNE 05:11:33 10° ESE visible
14 Mar - 06:47:29 10° W 06:53:27 33° SSW 07:00:21 10° SSE daylight
14 Mar - 17:55:40 10° SSW 17:59:16 20° SSE 18:02:25 10° ESE daylight
14 Mar - 19:43:27 10° WSW 19:47:39 65° NNW 19:51:19 10° NE visible
14 Mar - 21:34:40 10° NW 21:36:03 12° NNW 21:37:24 10° N night (unlit)
15 Mar - 03:00:27 10° NNW 03:04:27 25° NNE 03:09:14 10° E visible
15 Mar - 04:47:35 10° WNW 04:53:12 89° SW 05:00:18 10° ESE visible
15 Mar - 06:36:57 10° W 06:42:25 27° SSW 06:48:42 10° SSE daylight
15 Mar - 17:44:05 10° SSW 17:48:26 27° SSE 17:52:06 10° E daylight
15 Mar - 19:32:32 10° WSW 19:36:48 50° NNW 19:40:29 10° NE visible
16 Mar - 02:49:32 10° NNW 02:53:33 27° NNE 02:58:23 10° E visible
16 Mar - 04:36:48 10° WNW 04:42:11 75° SSW 04:49:01 10° SE visible
16 Mar - 06:26:34 10° WSW 06:31:25 22° SSW 06:36:56 10° SSE daylight
16 Mar - 17:32:37 10° SW 17:37:34 35° SSE 17:41:38 10° E daylight
16 Mar - 19:21:39 10° W 19:25:57 40° NNW 19:29:37 10° NE visible
